Regional Weather Roundup
Issued by NWS

Home | Current Version | Previous Version | Text Only | Print | Product List | Glossary On
Versions: 1 2 3 4 5 6 7 8 9 10 11 12 13 14 15 16 17 18 19 20 21 22 23 24 25 26 27 28 29 30 31 32 33 34 35 36 37 38 39 40 41 42 43 44 45 46 47 48 49 50
000
ASUS43 KTOP 241759
RWRKS

WEATHER ROUNDUP FOR KANSAS
NATIONAL WEATHER SERVICE GOODLAND KS
1200 PM CST SAT FEB 24 2018

NOTE:  "FAIR" INDICATES FEW OR NO CLOUDS BELOW 12,000 FEET WITH NO
SIGNIFICANT WEATHER AND/OR OBSTRUCTIONS TO VISIBILITY.

KSZ001>006-013>018-027>032-041>047-241900-
NORTHWEST KANSAS

CITY           SKY/WX    TMP DP  RH WIND       PRES   REMARKS
GOODLAND       SUNNY     37  23  56 NW24G36   29.77S WCI  26
6HR MIN TEMP:  25; 6HR MAX TEMP:  37; 6HR PCP:  0.01;

HAYS           CLOUDY    32  31  96 W7        29.84F
HILL CITY      CLOUDY    30  29  96 W8        29.82S
6HR MIN TEMP:  26; 6HR MAX TEMP:  30;

RUSSELL        FOG       31  30  96 NW7       29.84R VSB 1/4
6HR MIN TEMP:  30; 6HR MAX TEMP:  31;

$$

KSZ061>065-074>080-084>089-241900-
SOUTHWEST KANSAS

CITY           SKY/WX    TMP DP  RH WIND       PRES   REMARKS
DODGE CITY     CLOUDY    33  30  88 W10       29.84F WCI  25
6HR MIN TEMP:  28; 6HR MAX TEMP:  33;

GARDEN CITY    CLOUDY    35  31  85 W13       29.82R WCI  26
6HR MIN TEMP:  27; 6HR MAX TEMP:  36;

LIBERAL        CLOUDY    36  34  92 W13       29.86F WCI  27
$$

KSZ066>073-081>083-090>101-241900-
SOUTHEAST KANSAS

CITY           SKY/WX    TMP DP  RH WIND       PRES   REMARKS
CHANUTE        CLOUDY    40  40 100 S6        29.80S
6HR MIN TEMP:  36; 6HR MAX TEMP:  40; 6HR PCP:  0.18;

COFFEYVILLE    LGT RAIN  40  40 100 NW8       29.78F
6HR MIN TEMP:  38; 6HR MAX TEMP:  40; 6HR PCP:  0.22;

HUTCHINSON     CLOUDY    35  34  96 NW12      29.82F FOG     WCI  27
6HR MIN TEMP:  32; 6HR MAX TEMP:  35;

MEDICINE LODGE   N/A     40  35  83 W10       29.84F WCI  33
NEWTON         CLOUDY    32  32 100 NW5       29.82  FOG
PARSONS        LGT RAIN  41  41 100 CALM      29.80F
6HR MIN TEMP:  37; 6HR MAX TEMP:  41; 6HR PCP:  0.14;

WICHITA INTL   CLOUDY    36  34  92 NW3       29.82F
6HR MIN TEMP:  33; 6HR MAX TEMP:  36; 6HR PCP: TRACE;

WICHITA JABRA  FOG       35  35 100 W8        29.81F VSB 1
6HR MIN TEMP:  32; 6HR MAX TEMP:  35; 6HR PCP: TRACE;

WICHITA MCCONL CLOUDY    35  35  99 W7        29.81S FOG
WINFIELD       CLOUDY    37  37 100 W10       29.84R WCI  30
6HR MIN TEMP:  34; 6HR MAX TEMP:  38; 6HR PCP:  0.13;

$$

KSZ007>012-019>026-033>040-048>060-102>105-241900-
NORTHEAST KANSAS

CITY           SKY/WX    TMP DP  RH WIND       PRES   REMARKS
CONCORDIA      LGT SNOW  29  27  92 NW9       29.84F VSB 1
6HR MIN TEMP:  26; 6HR MAX TEMP:  29; 6HR PCP:  0.02;

EMPORIA        FOG       35  33  92 W8        29.78F VSB 1/2
6HR MIN TEMP:  32; 6HR MAX TEMP:  35; 6HR PCP: TRACE;

LAWRENCE       CLOUDY    39  39 100 S6        29.80S
6HR MIN TEMP:  35; 6HR MAX TEMP:  39;

MANHATTAN      CLOUDY    35  33  92 SW3       29.82F FOG
6HR MIN TEMP:  33; 6HR MAX TEMP:  35; 6HR PCP: TRACE;

OLATHE IND     LGT RAIN  39  39 100 SE8       29.76F FOG
6HR MIN TEMP:  34; 6HR MAX TEMP:  39; 6HR PCP: TRACE;

OLATHE EXE     LGT RAIN  38  38 100 SE10      29.76F FOG     WCI  31
6HR MIN TEMP:  33; 6HR MAX TEMP:  38; 6HR PCP: TRACE;

SALINA         CLOUDY    33  32  96 NW10      29.85F WCI  25
6HR MIN TEMP:  33; 6HR MAX TEMP:  34;

TOPEKA BILLARD CLOUDY    38  38 100 S6        29.81F FOG
6HR MIN TEMP:  34; 6HR MAX TEMP:  38;

TOPEKA FORBES  CLOUDY    38  38 100 S5        29.78F FOG
6HR MIN TEMP:  35; 6HR MAX TEMP:  38;

$$




USA.gov is the U.S. government's official web portal to all federal, state and local government web resources and services.